Date String (YYYY-MM-DD hh:mm:ss) UTC,Instrument flags,absolute air pressure of the measurement (hPa),sample flow rate (lpm),inlet stack bypass flow (lpm),air temperature of the measurement (°C),ambient temperature measured by the external sensor (°C),aerosol sample conditioner tube jacket temperature (°C),OPC LED temperature (°C),internal box temperature (°C),relative humidity of the measurement (%),span deviation,mass concentration of particles derived from Lorenz-Mie calculation of OPC scattering (μg/m³),mass concentration of particles derived from Lorenz-Mie calculation of OPC scattering (μg/m³),mass concentration of particles derived from Lorenz-Mie calculation of OPC scattering (μg/m³)
DateTimeUTC,F1_M11,P_M11,Q1_M11,Q2_M11,T1_M11,T2_M11,T3_M11,T4_M11,T5_M11,U1_M11,ZSPAN_M11,X2_M11,X0_M11,X1_M11
2024-01-08 12:00:00,SystemResetWarning,0819.3,5.00,000.00,019.0,018.4,000.0,027.4,020.1,15.0,0000.0,0001.79,0004.62,0001.45
2024-01-08 12:01:00,SystemResetWarning,0819.3,5.00,000.00,019.0,018.4,000.0,027.4,020.1,15.0,0000.0,0001.78,0004.64,0001.44
2024-01-08 12:02:00,SystemResetWarning,0819.3,5.00,000.00,019.0,018.3,000.0,027.4,020.0,15.0,0000.0,0001.77,0004.65,0001.43
2024-01-08 12:03:00,SystemResetWarning,0819.3,5.01,000.00,019.0,018.2,000.0,027.4,020.0,15.0,0000.0,0001.75,0004.70,0001.42
2024-01-08 12:04:00,SystemResetWarning,0819.3,5.00,000.00,019.0,018.2,000.0,027.3,020.0,15.0,0000.0,0001.73,0004.62,0001.41
2024-01-08 12:05:00,SystemResetWarning,0819.3,5.01,000.00,018.9,018.1,000.0,027.4,020.0,15.0,0000.0,0001.68,0003.89,0001.40
2024-01-08 12:06:00,SystemResetWarning,0819.4,5.00,000.00,018.9,018.1,000.0,027.4,020.0,15.0,0000.0,0001.67,0003.55,0001.38
2024-01-08 12:07:00,SystemResetWarning,0819.3,4.99,000.00,018.9,018.1,000.0,027.4,020.0,15.0,0000.0,0001.71,0003.85,0001.37
2024-01-08 12:08:00,SystemResetWarning,0819.4,4.99,000.00,018.9,018.0,000.0,027.4,020.0,14.9,0000.0,0001.70,0004.01,0001.37
2024-01-08 12:09:00,SystemResetWarning,0819.4,4.99,000.00,018.9,018.0,000.0,027.3,020.0,15.0,0000.0,0001.70,0003.75,0001.36
2024-01-08 12:10:00,SystemResetWarning,0819.3,5.00,000.00,018.9,018.0,000.0,027.3,020.0,15.0,0000.0,0001.70,0003.68,0001.35
2024-01-08 12:11:00,SystemResetWarning,0819.3,5.00,000.00,018.9,017.9,000.0,027.3,020.0,15.0,0000.0,0001.73,0003.57,0001.34
2024-01-08 12:12:00,SystemResetWarning,0819.5,5.00,000.00,018.9,018.0,000.0,027.3,020.0,15.0,0000.0,0001.75,0003.91,0001.35
2024-01-08 12:13:00,SystemResetWarning,0819.4,5.00,000.00,018.9,017.9,000.0,027.3,020.0,14.9,0000.0,0001.74,0003.90,0001.34
2024-01-08 12:14:00,SystemResetWarning,0819.6,5.00,000.00,018.9,017.9,000.0,027.3,020.0,14.9,0000.0,0001.73,0003.88,0001.33
2024-01-08 12:15:00,SystemResetWarning,0819.3,5.01,000.00,018.9,017.9,000.0,027.3,020.0,14.9,0000.0,0001.70,0003.91,0001.32
2024-01-08 12:16:00,SystemResetWarning,0819.4,5.00,000.00,018.9,017.9,000.0,027.3,020.0,14.9,0000.0,0001.69,0003.91,0001.31
2024-01-08 12:17:00,SystemResetWarning,0819.4,5.00,000.00,018.9,017.9,000.0,027.3,020.0,14.9,0000.0,0001.66,0003.57,0001.31
2024-01-08 12:18:00,SystemResetWarning,0819.4,5.00,000.00,018.8,017.9,000.0,027.3,020.0,14.8,0000.0,0001.62,0003.16,0001.30
2024-01-08 12:19:00,SystemResetWarning,0819.4,5.00,000.00,018.9,017.9,000.0,027.3,020.0,14.6,0000.0,0001.63,0003.00,0001.29
2024-01-08 12:20:00,SystemResetWarning,0819.4,4.99,000.00,018.9,017.9,000.0,027.3,020.2,14.5,0000.0,0001.62,0003.01,0001.27
2024-01-08 12:21:00,SystemResetWarning,0819.5,5.00,000.00,019.0,018.5,000.0,027.3,020.6,14.3,0000.0,0001.60,0002.92,0001.26
2024-01-08 12:22:00,SystemResetWarning,0819.5,5.00,000.00,019.1,019.1,000.0,027.3,020.9,14.2,0000.0,0001.58,0003.21,0001.25
2024-01-08 12:23:00,SystemResetWarning,0819.5,4.98,000.00,019.1,019.1,000.0,027.3,020.6,14.0,0000.0,0001.52,0003.02,0001.23
2024-01-08 12:24:00,SystemResetWarning,0819.5,5.00,000.00,019.1,018.9,000.0,027.3,020.3,13.9,0000.0,0001.54,0003.00,0001.23
2024-01-08 12:25:00,SystemResetWarning,0819.5,5.01,000.00,019.1,018.7,000.0,027.3,020.1,13.8,0000.0,0001.55,0002.91,0001.22
2024-01-08 12:26:00,SystemResetWarning,0819.5,5.01,000.00,019.0,018.6,000.0,027.3,020.0,13.8,0000.0,0001.53,0002.86,0001.20
2024-01-08 12:27:00,SystemResetWarning,0819.5,4.99,000.00,019.0,018.4,000.0,027.3,020.0,13.7,0000.0,0001.54,0002.93,0001.20
2024-01-08 12:28:00,SystemResetWarning,0819.5,4.99,000.00,019.0,018.3,000.0,027.3,020.0,13.8,0000.0,0001.54,0002.95,0001.19
2024-01-08 12:29:00,SystemResetWarning,0819.9,5.00,000.00,019.0,018.3,000.0,027.3,020.0,13.7,0000.0,0001.52,0002.93,0001.19
2024-01-08 12:30:00,SystemResetWarning,0819.7,5.00,000.00,018.9,018.2,000.0,027.3,020.0,13.7,0000.0,0001.47,0002.84,0001.17
2024-01-08 12:31:00,SystemResetWarning,0819.5,5.00,000.00,018.9,018.2,000.0,027.3,020.0,13.7,0000.0,0001.45,0002.78,0001.16
2024-01-08 12:32:00,SystemResetWarning,0819.8,5.00,000.00,018.9,018.1,000.0,027.3,020.0,13.5,0000.0,0001.47,0002.80,0001.16
2024-01-08 12:33:00,SystemResetWarning,0819.8,5.00,000.00,018.9,018.1,000.0,027.3,020.0,13.4,0000.0,0001.43,0002.33,0001.16
2024-01-08 12:34:00,SystemResetWarning,0820.0,5.00,000.00,018.9,018.2,000.0,027.3,020.3,13.3,0000.0,0001.44,0002.07,0001.16
2024-01-08 12:35:00,SystemResetWarning,0819.8,5.01,000.00,019.1,018.9,000.0,027.4,020.8,13.2,0000.0,0001.45,0002.63,0001.16
2024-01-08 12:36:00,SystemResetWarning,0819.7,5.00,000.00,019.2,019.4,000.0,027.4,020.9,13.0,0000.0,0001.50,0002.83,0001.17
2024-01-08 12:37:00,SystemResetWarning,0819.8,4.99,000.00,019.2,019.3,000.0,027.4,020.7,12.9,0000.0,0001.55,0003.80,0001.19
2024-01-08 12:38:00,SystemResetWarning,0819.7,5.00,000.00,019.2,019.1,000.0,027.4,020.4,12.8,0000.0,0001.61,0004.13,0001.20
2024-01-08 12:39:00,SystemResetWarning,0819.7,5.00,000.00,019.2,018.9,000.0,027.4,020.2,12.7,0000.0,0001.66,0004.28,0001.22
2024-01-08 12:40:00,SystemResetWarning,0819.8,4.99,000.00,019.1,018.7,000.0,027.4,020.1,12.8,0000.0,0001.71,0004.37,0001.24
2024-01-08 12:41:00,SystemResetWarning,0820.0,5.00,000.00,019.1,018.5,000.0,027.4,020.0,12.7,0000.0,0001.78,0004.51,0001.27
2024-01-08 12:42:00,SystemResetWarning,0819.8,5.01,000.00,019.1,018.4,000.0,027.4,020.0,12.7,0000.0,0001.83,0004.86,0001.29
2024-01-08 12:43:00,SystemResetWarning,0820.0,5.00,000.00,019.0,018.3,000.0,027.4,020.0,12.7,0000.0,0001.89,0005.54,0001.31
2024-01-08 12:44:00,SystemResetWarning,0819.7,5.00,000.00,019.0,018.2,000.0,027.4,020.0,12.7,0000.0,0001.95,0007.78,0001.34
2024-01-08 12:45:00,SystemResetWarning,0819.8,5.00,000.00,019.0,018.2,000.0,027.4,020.0,12.6,0000.0,0001.99,0008.17,0001.36
2024-01-08 12:46:00,SystemResetWarning,0819.8,5.00,000.00,019.0,018.1,000.0,027.4,020.0,12.6,0000.0,0002.01,0008.37,0001.37
2024-01-08 12:47:00,SystemResetWarning,0819.8,5.00,000.00,019.0,018.1,000.0,027.4,020.0,12.8,0000.0,0002.00,0008.85,0001.39
2024-01-08 12:48:00,SystemResetWarning,0819.8,5.00,000.00,018.9,018.0,000.0,027.4,020.0,12.7,0000.0,0002.03,0008.69,0001.40
2024-01-08 12:49:00,SystemResetWarning,0820.1,5.00,000.00,018.9,018.0,000.0,027.4,020.0,12.7,0000.0,0002.03,0008.40,0001.41
2024-01-08 12:50:00,SystemResetWarning,0820.1,5.00,000.00,018.9,018.0,000.0,027.4,020.0,12.6,0000.0,0002.01,0008.35,0001.42
2024-01-08 12:51:00,SystemResetWarning,0820.0,5.00,000.00,018.9,018.0,000.0,027.4,020.0,12.7,0000.0,0001.98,0008.54,0001.41
2024-01-08 12:52:00,SystemResetWarning,0820.0,5.00,000.00,018.9,018.0,000.0,027.4,020.0,12.6,0000.0,0001.99,0009.07,0001.41
2024-01-08 12:53:00,SystemResetWarning,0819.8,5.00,000.00,018.9,018.0,000.0,027.4,020.0,12.6,0000.0,0002.01,0009.04,0001.41
2024-01-08 12:54:00,SystemResetWarning,0819.8,5.00,000.00,018.9,018.0,000.0,027.4,020.0,12.7,0000.0,0001.99,0008.80,0001.42
2024-01-08 12:55:00,SystemResetWarning,0819.8,5.00,000.00,018.9,017.9,000.0,027.4,020.0,12.7,0000.0,0001.98,0007.43,0001.42
2024-01-08 12:56:00,SystemResetWarning,0819.9,5.01,000.00,018.9,018.2,000.0,027.4,020.3,12.8,0000.0,0001.99,0007.05,0001.41
2024-01-08 12:57:00,SystemResetWarning,0820.0,5.00,000.00,019.0,018.9,000.0,027.4,020.8,12.6,0000.0,0001.98,0006.77,0001.41
2024-01-08 12:58:00,SystemResetWarning,0820.1,5.00,000.00,019.2,019.3,000.0,027.4,020.9,12.4,0000.0,0001.97,0005.21,0001.41
2024-01-08 12:59:00,SystemResetWarning,0819.9,4.99,000.00,019.2,019.2,000.0,027.4,020.7,12.3,0000.0,0001.93,0005.18,0001.40
